千帆星座-208(QIANFAN-208)

导读

QIANFAN-208(NORAD编号69807)是中国千帆低轨互联网星座的组网卫星,由上海微小卫星工程中心研制,上海垣信卫星科技有限公司运营,2026年5月17日随千帆星座第9批组网卫星,由长征八号运载火箭从海南商业航天发射场发射入轨,运行于约1060公里高度的太阳同步轨道,轨道倾角88.97度,周期约107分钟。该卫星在轨状态良好,主要为全球尤其是偏远地区、海洋区域提供低延迟、高带宽的卫星互联网接入服务,是我国商业卫星互联网星座建设的重要组成部分。

基本信息
目录编号:
69807
目录名称:
QIANFAN-208
国际标识:
2026-153H
轨道中心:
EARTH
卫星名称:
千帆星座-208
卫星全名:
千帆星座-208(QIANFAN-208)
卫星状态:
在轨 (已飞行63 天)
发射日期:
2026-07-04 UTC
国别 :
中国 (CN)
星等 :
--
轨道信息
数据来源 国际轨道数据 AOE轨道数据
星历时间 2026-09-05T12:21:03+0800
4小时前
查看轨道信息
2026-08-30T04:00:00+0800
6天前
查看轨道信息
半长轴 7239.058km 7218.714km
偏心率 0.0008047 0.0008166
轨道倾角 88.998° 88.998°
近地点辐角 52.793° 60.920°
升交点赤经 353.156° 353.870°
平近点角 307.399° 69.157°
近地点 855.095km 834.682km
远地点 866.747km 846.472km
周期 102.160分钟 101.730分钟
每日圈数 14.095474 14.155103
详细信息
卫星平台:
208
覆盖范围:
全球
运营商:
上海垣信卫星科技有限公司
运营商所在国:
中国
使用方式:
暂无
卫星简介
千帆星座,也被称为“G60星链”计划,是中国版“星链”的重要组成部分,旨在打造一个由1.4万多颗低轨宽频多媒体卫星构成的庞大星座。千帆星座计划由上海垣信卫星科技有限公司负责实施,于2023年启动建设。该项目是我国第二个低轨卫星大星座,旨在通过构建庞大的卫星网络,为全球用户提供高质量的通信和宽带互联网服务。
2D轨道图
3D轨道图
轨道高度分析图
轨道倾角分析图
轨道综合分析图
查看轨道综合分析图
交会数据列表
事件ID 空间交会对象 最接近时刻(TCA) 交会距离 交会风险概率(CRP) 交会风险指数(CRI) 操作
CDM_260906-022202-999206-980722
2026-09-06T
02:22:21+0000
2.198 km
极远距离
2.017128E-6 低风险 0.41
CDM_260906-061906-129506-980721
2026-09-06T
06:19:38+0000
2.371 km
极远距离
1.548239E-6 低风险 0.39
CDM_260905-190802-486606-980722
2026-09-05T
19:08:27+0000
2.942 km
极远距离
1.356307E-6 低风险 0.38
CDM_260907-020800-416806-980721
2026-09-07T
02:08:11+0000
2.821 km
极远距离
1.05852E-6 低风险 0.35